Location: Rogers' Astrophysics Observatory
(34.4289°N, 82.8708°W)
Time: 13:47:27
(UTC-04:00)

Envisat - Visible Passes

Search period start: 23 July 2018 00:00
Search period end: 02 August 2018 00:00
Orbit: 764 x 766 km, 98.2° (Epoch: 22 July)

Date Brightness Start Highest point End Pass type
(mag) Time Alt. Az. Time Alt. Az. Time Alt. Az.
24 Jul 5.6 21:59:31 10° SW 22:02:41 17° W 22:05:51 10° NW visible
25 Jul 4.4 21:21:01 10° SSW 21:25:44 39° W 21:30:29 10° NNW visible
27 Jul 5.4 21:47:37 10° SW 21:51:26 21° W 21:55:17 10° NW visible
28 Jul 3.9 21:09:37 10° S 21:14:32 51° W 21:19:29 10° NNW visible
29 Jul 5.9 22:15:49 10° WSW 22:17:14 11° W 22:18:39 10° WNW visible
30 Jul 5.0 21:35:55 10° SSW 21:40:12 27° W 21:44:31 10° NW visible
31 Jul 3.4 20:58:20 10° S 21:03:22 67° W 21:08:25 10° NNW visible
01 Aug 5.7 22:03:09 10° SW 22:05:57 15° W 22:08:47 10° WNW visible
